Location: Unspecified
(22.6800°N, 112.2000°E)
Time: 10:13:22
(UTC+08:00)

Transit 4A - All Passes

Search period start: 06 August 2021 00:00
Search period end: 16 August 2021 00:00
Orbit: 872 x 972 km, 66.8° (Epoch: 05 August)

Date Brightness Start Highest point End Pass type
(mag) Time Alt. Az. Time Alt. Az. Time Alt. Az.
06 Aug - 07:46:07 10° NNE 07:49:52 17° ENE 07:53:38 10° E daylight
06 Aug - 09:30:34 10° NW 09:36:19 51° WSW 09:42:11 10° S daylight
06 Aug - 20:58:22 10° SE 21:01:10 14° ESE 21:03:56 10° ENE night (unlit)
06 Aug - 22:41:09 10° SW 22:46:59 55° WNW 22:52:44 10° NNE visible
07 Aug - 07:54:20 10° N 07:59:19 27° ENE 08:04:23 10° ESE daylight
07 Aug - 09:40:21 10° NW 09:45:30 31° WSW 09:50:45 10° SSW daylight
07 Aug - 21:05:40 10° SSE 21:10:18 23° ESE 21:14:50 10° NE visible
07 Aug - 22:51:01 10° SW 22:56:20 34° WNW 23:01:35 10° N visible
08 Aug - 08:03:03 10° N 08:08:42 44° ENE 08:14:27 10° SE daylight
08 Aug - 09:50:41 10° WNW 09:54:38 18° WSW 09:58:40 10° SSW daylight
08 Aug - 21:13:57 10° S 21:19:27 39° ESE 21:24:51 10° NE visible
08 Aug - 23:01:24 10° WSW 23:05:45 21° WNW 23:10:04 10° NNW visible
09 Aug - 08:12:04 10° NNW 08:18:00 72° ENE 08:24:06 10° SSE daylight
09 Aug - 21:22:44 10° SSW 21:28:39 66° ESE 21:34:27 10° NNE visible
09 Aug - 23:12:50 10° W 23:15:16 13° WNW 23:17:41 10° NNW visible
10 Aug - 06:38:19 10° NE 06:40:37 12° ENE 06:42:53 10° E daylight
10 Aug - 08:21:20 10° NNW 08:27:16 70° WSW 08:33:21 10° SSE daylight
10 Aug - 21:31:56 10° SSW 21:37:53 76° WNW 21:43:45 10° NNE visible
11 Aug - 06:45:50 10° NNE 06:50:08 20° ENE 06:54:29 10° ESE daylight
11 Aug - 08:30:53 10° NW 08:36:28 42° WSW 08:42:12 10° S daylight
11 Aug - 19:57:41 10° SE 20:01:18 17° ESE 20:04:51 10° ENE visible
11 Aug - 21:41:31 10° SW 21:47:12 46° WNW 21:52:48 10° N visible
12 Aug - 06:54:16 10° N 06:59:33 32° ENE 07:04:56 10° SE daylight
12 Aug - 08:40:49 10° NW 08:45:39 26° WSW 08:50:34 10° SSW daylight
12 Aug - 20:05:26 10° SSE 20:10:25 28° ESE 20:15:20 10° NE visible
12 Aug - 21:51:33 10° WSW 21:56:34 28° WNW 22:01:32 10° N visible
13 Aug - 07:03:06 10° N 07:08:54 52° ENE 07:14:51 10° SE daylight
13 Aug - 08:51:30 10° WNW 08:54:47 15° WSW 08:58:06 10° SW daylight
13 Aug - 20:13:55 10° S 20:19:36 47° ESE 20:25:11 10° NE visible
13 Aug - 22:02:12 10° W 22:06:01 17° WNW 22:09:49 10° NNW visible
14 Aug - 07:12:12 10° NNW 07:18:12 85° ENE 07:24:20 10° SSE daylight
14 Aug - 20:22:51 10° SSW 20:28:49 79° ESE 20:34:39 10° NNE visible
14 Aug - 22:14:56 10° WNW 22:15:34 10° WNW 22:16:12 10° NW visible
15 Aug - 05:37:39 10° NNE 05:40:54 15° ENE 05:44:09 10° E visible
15 Aug - 07:21:34 10° NNW 07:27:26 59° WSW 07:33:27 10° S daylight
15 Aug - 18:50:38 10° ESE 18:52:19 11° ESE 18:53:59 10° E daylight
15 Aug - 20:32:12 10° SSW 20:38:04 64° WNW 20:43:53 10° NNE visible
